When you browse on this site, cookies collect data to enhance your experience and personalize the content and advertising you see.
Visit our Privacy Policy to learn more. By continuing to use the site, you agree to this use of cookies and data.
  • în România
  • Lista ţărilor
  • Pe 7 zile
  • Temperatura apei
  • Meteo pe hartă
  • Widget-uri
  • user-avatar
    Intrare

    Meteo pe oră la Mbeya

    Astăzi, 6 Aprilie, Luni

    Timp Temperatura Precipitaţii Vânt Presiune Umiditate
    00:00 +16°C° 0 mm 1 m/s 622 mmHg 95%
    01:00 +16°C° 0 mm 1 m/s 621 mmHg 95%
    02:00 +16°C° 0 mm 1 m/s 621 mmHg 96%
    03:00 +15°C° 0 mm 1 m/s 621 mmHg 96%
    04:00 +15°C° 0 mm 1 m/s 621 mmHg 96%
    05:00 +15°C° 0 mm 1 m/s 621 mmHg 95%
    06:00 +18°C° 0 mm 1 m/s 622 mmHg 93%
    07:00 +19°C° 0 mm 1 m/s 623 mmHg 91%
    08:00 +20°C° 0 mm 1 m/s 624 mmHg 89%
    09:00 +22°C° 0.5 mm 1 m/s 624 mmHg 86%
    10:00 +23°C° 0.5 mm 1 m/s 625 mmHg 82%
    11:00 +24°C° 0.5 mm 1 m/s 625 mmHg 79%
    12:00 +24°C° 1.3 mm 1 m/s 624 mmHg 81%
    13:00 +24°C° 1.3 mm 1 m/s 623 mmHg 83%
    14:00 +22°C° 1.3 mm 0 m/s 622 mmHg 85%
    15:00 +21°C° 0.9 mm 0 m/s 622 mmHg 87%
    16:00 +21°C° 0.9 mm 0 m/s 622 mmHg 90%
    17:00 +20°C° 0.9 mm 0 m/s 622 mmHg 92%
    18:00 +19°C° 0.8 mm 0 m/s 622 mmHg 93%
    19:00 +18°C° 0.8 mm 0 m/s 622 mmHg 94%
    20:00 +18°C° 0.8 mm 1 m/s 622 mmHg 95%
    21:00 +18°C° 0.7 mm 1 m/s 622 mmHg 94%
    22:00 +18°C° 0.7 mm 1 m/s 622 mmHg 94%
    23:00 +18°C° 0.7 mm 1 m/s 622 mmHg 94%

    Mâine, 7 Aprilie, Marţi

    Timp Temperatura Precipitaţii Vânt Presiune Umiditate
    00:00 +18°C° 0.4 mm 1 m/s 622 mmHg 94%
    01:00 +18°C° 0.4 mm 1 m/s 622 mmHg 94%
    02:00 +18°C° 0.4 mm 1 m/s 621 mmHg 93%
    03:00 +18°C° 0.2 mm 1 m/s 621 mmHg 93%
    04:00 +18°C° 0.2 mm 1 m/s 622 mmHg 93%
    05:00 +18°C° 0.2 mm 1 m/s 622 mmHg 93%
    06:00 +16°C° 0.3 mm 0 m/s 622 mmHg 93%
    07:00 +17°C° 0.3 mm 0 m/s 623 mmHg 93%
    08:00 +18°C° 0.3 mm 0 m/s 624 mmHg 93%
    09:00 +20°C° 1.2 mm 1 m/s 624 mmHg 93%
    10:00 +21°C° 1.2 mm 1 m/s 624 mmHg 92%
    11:00 +21°C° 1.2 mm 2 m/s 624 mmHg 92%
    12:00 +22°C° 1.4 mm 1 m/s 623 mmHg 89%
    13:00 +23°C° 1.4 mm 1 m/s 623 mmHg 86%
    14:00 +23°C° 1.4 mm 1 m/s 622 mmHg 83%
    15:00 +22°C° 0.7 mm 1 m/s 622 mmHg 86%
    16:00 +22°C° 0.7 mm 1 m/s 621 mmHg 89%
    17:00 +19°C° 0.7 mm 0 m/s 621 mmHg 91%
    18:00 +18°C° 1.2 mm 0 m/s 622 mmHg 93%
    19:00 +20°C° 1.2 mm 1 m/s 622 mmHg 94%
    20:00 +19°C° 1.2 mm 1 m/s 622 mmHg 95%
    21:00 +18°C° 1 mm 1 m/s 622 mmHg 95%
    22:00 +18°C° 1 mm 1 m/s 622 mmHg 95%
    23:00 +18°C° 1 mm 1 m/s 622 mmHg 96%

    Poimâine, 8 Aprilie, Miercuri

    Timp Temperatura Precipitaţii Vânt Presiune Umiditate
    00:00 +18°C° 0.9 mm 1 m/s 622 mmHg 96%
    01:00 +18°C° 0.9 mm 1 m/s 622 mmHg 95%
    02:00 +18°C° 0.9 mm 1 m/s 622 mmHg 95%
    03:00 +18°C° 0.8 mm 1 m/s 622 mmHg 96%
    04:00 +16°C° 0.8 mm 0 m/s 622 mmHg 96%
    05:00 +16°C° 0.8 mm 0 m/s 622 mmHg 96%
    06:00 +18°C° 0.9 mm 1 m/s 622 mmHg 96%
    07:00 +18°C° 0.9 mm 1 m/s 623 mmHg 96%
    08:00 +19°C° 0.9 mm 1 m/s 624 mmHg 96%
    09:00 +19°C° 1 mm 1 m/s 624 mmHg 96%
    10:00 +19°C° 1 mm 1 m/s 624 mmHg 95%
    11:00 +19°C° 1 mm 2 m/s 624 mmHg 94%
    12:00 +21°C° 0.5 mm 1 m/s 623 mmHg 90%
    13:00 +22°C° 0.5 mm 1 m/s 623 mmHg 85%
    14:00 +23°C° 0.5 mm 1 m/s 623 mmHg 81%
    15:00 +22°C° 0.5 mm 1 m/s 622 mmHg 84%
    16:00 +21°C° 0.5 mm 1 m/s 622 mmHg 88%
    17:00 +21°C° 0.5 mm 1 m/s 622 mmHg 91%
    18:00 +20°C° 0.5 mm 1 m/s 622 mmHg 93%
    19:00 +19°C° 0.5 mm 1 m/s 622 mmHg 94%
    20:00 +17°C° 0.5 mm 2 m/s 622 mmHg 95%
    21:00 +18°C° 0.3 mm 1 m/s 623 mmHg 95%
    22:00 +18°C° 0.3 mm 1 m/s 623 mmHg 95%
    23:00 +18°C° 0.3 mm 1 m/s 623 mmHg 95%

    9 Aprilie, Joi

    Timp Temperatura Precipitaţii Vânt Presiune Umiditate
    00:00 +18°C° 0.4 mm 1 m/s 622 mmHg 95%
    01:00 +16°C° 0.4 mm 1 m/s 622 mmHg 95%
    02:00 +16°C° 0.4 mm 1 m/s 622 mmHg 95%
    03:00 +16°C° 0.1 mm 1 m/s 622 mmHg 95%
    04:00 +16°C° 0.1 mm 1 m/s 622 mmHg 96%
    05:00 +16°C° 0.1 mm 1 m/s 622 mmHg 96%
    06:00 +18°C° 0.2 mm 1 m/s 623 mmHg 96%
    07:00 +18°C° 0.2 mm 1 m/s 624 mmHg 95%
    08:00 +19°C° 0.2 mm 1 m/s 625 mmHg 94%
    09:00 +19°C° 0.5 mm 1 m/s 624 mmHg 94%
    10:00 +19°C° 0.5 mm 1 m/s 624 mmHg 93%
    11:00 +20°C° 0.5 mm 1 m/s 624 mmHg 92%
    12:00 +21°C° 0.7 mm 1 m/s 624 mmHg 90%
    13:00 +21°C° 0.7 mm 1 m/s 623 mmHg 89%
    14:00 +22°C° 0.7 mm 1 m/s 623 mmHg 87%
    15:00 +21°C° 1.1 mm 1 m/s 623 mmHg 90%
    16:00 +21°C° 1.1 mm 1 m/s 623 mmHg 93%
    17:00 +20°C° 1.1 mm 1 m/s 623 mmHg 96%
    18:00 +19°C° 0.4 mm 1 m/s 623 mmHg 96%
    19:00 +18°C° 0.4 mm 1 m/s 623 mmHg 96%
    20:00 +17°C° 0.4 mm 2 m/s 623 mmHg 97%
    21:00 +16°C° 0 mm 2 m/s 623 mmHg 96%
    22:00 +16°C° 0 mm 2 m/s 623 mmHg 96%
    23:00 +16°C° 0 mm 2 m/s 623 mmHg 96%

    10 Aprilie, Vineri

    Timp Temperatura Precipitaţii Vânt Presiune Umiditate
    00:00 +16°C° 0 mm 1 m/s 622 mmHg 96%
    01:00 +16°C° 0 mm 1 m/s 622 mmHg 96%
    02:00 +15°C° 0 mm 1 m/s 622 mmHg 96%
    03:00 +15°C° 0 mm 1 m/s 622 mmHg 96%
    04:00 +15°C° 0 mm 1 m/s 622 mmHg 96%
    05:00 +15°C° 0 mm 1 m/s 622 mmHg 96%
    06:00 +16°C° 0 mm 1 m/s 623 mmHg 94%
    07:00 +18°C° 0 mm 1 m/s 624 mmHg 92%
    08:00 +19°C° 0 mm 1 m/s 624 mmHg 90%
    09:00 +21°C° 0.1 mm 1 m/s 625 mmHg 85%
    10:00 +22°C° 0.1 mm 1 m/s 625 mmHg 81%
    11:00 +23°C° 0.1 mm 1 m/s 625 mmHg 76%
    12:00 +23°C° 0.6 mm 1 m/s 624 mmHg 78%
    13:00 +23°C° 0.6 mm 1 m/s 623 mmHg 80%
    14:00 +24°C° 0.6 mm 1 m/s 623 mmHg 82%
    15:00 +23°C° 1.1 mm 1 m/s 622 mmHg 85%
    16:00 +22°C° 1.1 mm 1 m/s 622 mmHg 89%
    17:00 +21°C° 1.1 mm 1 m/s 622 mmHg 92%
    18:00 +19°C° 0.3 mm 2 m/s 622 mmHg 93%
    19:00 +18°C° 0.3 mm 2 m/s 622 mmHg 94%
    20:00 +17°C° 0.3 mm 2 m/s 622 mmHg 96%
    21:00 +17°C° 0.1 mm 2 m/s 622 mmHg 96%
    22:00 +16°C° 0.1 mm 2 m/s 623 mmHg 97%
    23:00 +16°C° 0.1 mm 2 m/s 623 mmHg 97%

    11 Aprilie, Sâmbătă

    Timp Temperatura Precipitaţii Vânt Presiune Umiditate
    00:00 +16°C° 0 mm 2 m/s 622 mmHg 97%
    01:00 +16°C° 0 mm 2 m/s 622 mmHg 97%
    02:00 +16°C° 0 mm 1 m/s 621 mmHg 97%
    03:00 +15°C° 0 mm 1 m/s 621 mmHg 97%
    04:00 +15°C° 0 mm 1 m/s 621 mmHg 97%
    05:00 +15°C° 0 mm 1 m/s 621 mmHg 96%
    06:00 +16°C° 0 mm 1 m/s 622 mmHg 94%
    07:00 +18°C° 0 mm 1 m/s 623 mmHg 92%
    08:00 +19°C° 0 mm 1 m/s 624 mmHg 89%
    09:00 +21°C° 0 mm 1 m/s 624 mmHg 82%
    10:00 +22°C° 0 mm 1 m/s 625 mmHg 75%
    11:00 +24°C° 0 mm 1 m/s 625 mmHg 67%
    12:00 +24°C° 0.2 mm 1 m/s 624 mmHg 69%
    13:00 +24°C° 0.2 mm 1 m/s 623 mmHg 71%
    14:00 +24°C° 0.2 mm 1 m/s 623 mmHg 73%
    15:00 +23°C° 0.5 mm 1 m/s 622 mmHg 79%
    16:00 +22°C° 0.5 mm 1 m/s 622 mmHg 85%
    17:00 +21°C° 0.5 mm 1 m/s 621 mmHg 90%
    18:00 +20°C° 0.1 mm 1 m/s 621 mmHg 92%
    19:00 +19°C° 0.1 mm 1 m/s 622 mmHg 93%
    20:00 +17°C° 0.1 mm 2 m/s 622 mmHg 95%
    21:00 +16°C° 0 mm 2 m/s 622 mmHg 95%
    22:00 +16°C° 0 mm 1 m/s 622 mmHg 95%
    23:00 +16°C° 0 mm 1 m/s 622 mmHg 96%
    Arată mai mult